This is the latest recevied weather packets stored in our database for station/object IZ4UFQ-10. If no packets are shown the sender has not sent any weather packets the latest 1 day(s).
| Time | Temp. | Humidity | Pressure | Rain* | Wind** | Luminosity | Snow |
|---|---|---|---|---|---|---|---|
| 1836274621 | 20° C | 80% | 1024.4 hPa | 0 mm | 0 m/s | 0 W/m² | - |
| 1836274472 | 20° C | 81% | 1024.3 hPa | 0 mm | 0 m/s | 0 W/m² | - |
| 1836274321 | 20° C | 80% | 1024.4 hPa | 0 mm | 0 m/s | 0 W/m² | - |
| 1836274171 | 20° C | 80% | 1024.4 hPa | 0 mm | 0 m/s | 0 W/m² | - |
| 1836274021 | 20° C | 80% | 1024.4 hPa | 0 mm | 0 m/s | 0 W/m² | - |
| 1778004405 | 18.89° C | 81% | 1011.5 hPa | 0 mm | 0 m/s | 7 W/m² | - |
| 1778004105 | 18.89° C | 81% | 1011.4 hPa | 0 mm | 0 m/s | 11 W/m² | - |
| 1778003804 | 18.89° C | 81% | 1011.4 hPa | 0 mm | 0 m/s | 12 W/m² | - |
| 1778003504 | 18.89° C | 81% | 1011.3 hPa | 0 mm | 0 m/s | 21 W/m² | - |
| 1778003204 | 18.89° C | 80% | 1011.3 hPa | 0 mm | 0 m/s | 32 W/m² | - |
| 1778002903 | 18.89° C | 80% | 1011.2 hPa | 0 mm | 0 m/s | 35 W/m² | - |
| 1778002603 | 18.89° C | 80% | 1011.2 hPa | 0 mm | 0 m/s | 46 W/m² | - |
| 1778002303 | 19.44° C | 80% | 1011.2 hPa | 0 mm | 0 m/s | 51 W/m² | - |
| 1778002003 | 19.44° C | 79% | 1011.2 hPa | 0 mm | 0 m/s | 37 W/m² | - |
| 1778001702 | 19.44° C | 80% | 1011.2 hPa | 0 mm | 0 m/s | 79 W/m² | - |
| 1778001402 | 19.44° C | 80% | 1011.2 hPa | 0 mm | 0 m/s | 102 W/m² | - |
| 1778001102 | 19.44° C | 80% | 1011.1 hPa | 0 mm | 0 m/s | 128 W/m² | - |
| 1778000801 | 19.44° C | 80% | 1011.2 hPa | 0 mm | 0 m/s | 102 W/m² | - |
| 1778000501 | 19.44° C | 80% | 1011.1 hPa | 0 mm | 0 m/s | 142 W/m² | - |
| 1778000201 | 18.89° C | 80% | 1011.2 hPa | 0 mm | 0 m/s | 105 W/m² | - |
| 1777999900 | 18.89° C | 80% | 1011.2 hPa | 0 mm | 0 m/s | 44 W/m² | - |
| 1777999600 | 19.44° C | 80% | 1011.2 hPa | 0 mm | 0 m/s | 30 W/m² | - |
| 1777999300 | 19.44° C | 80% | 1011.2 hPa | 0 mm | 0 m/s | 28 W/m² | - |
| 1777999000 | 19.44° C | 80% | 1011.1 hPa | 0 mm | 0 m/s | 26 W/m² | - |
| 1777998699 | 19.44° C | 80% | 1011.1 hPa | 0 mm | 0 m/s | 58 W/m² | - |
* Rain latest hour (hover to see other rain measurements)
** Current wind speed in m/s (hover to see current wind gust speed)